Regional Weather Roundup
Issued by NWS Charleston, WV

Home | Current Version | Previous Version | Graphics & Text | Print | Product List | Glossary On
Versions: 1 2 3 4 5 6 7 8 9 10 11 12 13 14 15 16 17 18 19 20 21 22 23 24 25 26 27 28 29
000
ASUS41 KRLX 201010
RWRRLX
West Virginia Regional Weather Roundup
National Weather Service Charleston WV
500 AM EST SAT JAN 20 2018

Note: "fair" indicates few or no clouds below 12,000 feet with no
significant weather and/or obstructions to visibility.

WVZ003-201100-
Northern Panhandle of West Virginia

CITY           SKY/WX    TMP DP  RH WIND       PRES   REMARKS
WHEELING         N/A     35  20  54 SW13G22   29.99S
$$

WVZ009-201100-
Northwest West Virginia

CITY           SKY/WX    TMP DP  RH WIND       PRES   REMARKS
PARKERSBURG      N/A     37  19  48 S9        30.09S
$$

WVZ006-201100-
Western West Virginia

CITY           SKY/WX    TMP DP  RH WIND       PRES   REMARKS
HUNTINGTON     CLOUDY    39  23  52 S8        30.10F
$$

WVZ015-201100-
West Central West Virginia

CITY           SKY/WX    TMP DP  RH WIND       PRES   REMARKS
CHARLESTON     CLOUDY    40  27  59 SW9       30.12R
$$

WVZ022-031-201100-
North Central West Virginia

CITY           SKY/WX    TMP DP  RH WIND       PRES   REMARKS
CLARKSBURG     CLOUDY    39  22  50 SW9       30.08S
MORGANTOWN       N/A     39  19  44 SW10G17   30.06S
$$

WVZ025-035-042-045-201100-
Southern West Virginia

CITY           SKY/WX    TMP DP  RH WIND       PRES   REMARKS
BECKLEY        CLOUDY    32  11  41 SW6       30.13R
LOGAN          CLOUDY    37  23  56 CALM      30.14S
BLUEFIELD        N/A     31  13  47 W14G21    30.14R
LEWISBURG      CLOUDY    36  16  44 W6        30.14R
$$

WVZ047-201100-
Northern Mountains of West Virginia

CITY           SKY/WX    TMP DP  RH WIND       PRES   REMARKS
ELKINS         CLOUDY    39  27  62 S5        30.11R
$$

WVZ052-201100-
Eastern Panhandle of West Virginia

CITY           SKY/WX    TMP DP  RH WIND       PRES   REMARKS
MARTINSBURG      N/A     23  18  81 SW6       29.97F
PETERSBURG       N/A     45  29  52 SW14G25   30.01R
$$




USA.gov is the U.S. government's official web portal to all federal, state and local government web resources and services.